CMS-01

Last updated on Thu Sep 10 2026 00:03:00 GMT+0000 (Coordinated Universal Time)

1 47256U 20099A 26252.45944848 -.00000186 00000+0 00000+0 0 9991 2 47256 0.0289 104.0161 0004926 152.3684 340.5147 1.00270534 21041
UTC large
Height (km)
Speed (km/s)
/
Latitude / Longitude
Inclination (degrees)
Orbital Period (minutes)
Azimuth
Elevation
Range (km)
Doppler Factor

Next 0 passes for location: London (51.5072 / 0.1276)

No passes found over London.
CMS-01